#timestamp,LO_Frequency,Hit,StdDev 
1683219615.5,286047001.1,N
1683219635.4,286047000.5,N
1683219655.2,286047000.6,N
1683219675.0,286046998.5,N
1683219675.9,286046998.5,N
1683219695.8,286046999.3,N
1683219715.6,286046996.5,N
1683219735.4,286046996.5,N
1683219755.3,286046996.9,N
1683219775.1,286046996.7,N
1683219795.9,286046996.6,N
1683219815.7,286046996.7,N
1683219835.5,286046999.2,N
1683219855.4,286046998.8,N
1683219875.2,286046998.9,N
1683219895.0,286046997.1,N
1683219895.9,286046997.1,N
1683219915.8,286046997.0,N
1683219935.6,286046997.0,N
1683219955.5,286046998.5,N
1683219975.3,286046998.1,N
1683219995.1,286047001.1,N
1683220015.9,286046999.1,N
1683220035.7,286046996.6,N
1683220055.5,286046999.2,N
1683220075.4,286046996.6,N
1683220095.2,286046998.8,N
1683220115.0,286047001.2,N
1683220115.9,286047001.2,N
1683220135.8,286047001.1,N
1683220155.6,286047000.1,N
1683220175.5,286046999.9,N
1683220195.3,286047000.7,N
1683220215.1,286046998.3,N
1683220235.9,286047001.1,N
1683220255.7,286046998.1,N
1683220275.5,286047000.7,N
1683220295.4,286046998.3,N
1683220315.2,286047001.0,N
1683220335.1,286047000.4,N
1683220336.0,286047000.4,N
1683220355.8,286047002.6,N
1683220375.6,286047002.6,N
1683220395.5,286047001.8,N
1683220415.3,286047002.6,N
1683220435.1,286046999.7,N
1683220455.9,286047000.2,N
1683220475.7,286047000.3,N
1683220495.6,286046998.2,N
1683220515.4,286047000.1,N
1683220535.2,286047001.1,N
1683220555.1,286046998.5,N
1683220556.0,286046998.5,N
1683220575.8,286047001.0,N
1683220595.6,286046998.1,N
1683220615.5,286046998.8,N
1683220635.3,286046998.3,N
1683220655.1,286047000.8,N
1683220675.9,286046998.8,N
1683220695.7,286046996.5,N
1683220715.6,286046996.8,N
1683220735.4,286046999.2,N
1683220755.2,286046996.8,N
1683220775.1,286046997.5,N
1683220776.0,286046997.5,N
1683220795.8,286046997.3,N
1683220815.6,286046998.0,N
1683220835.5,286046997.6,N
1683220855.3,286046997.2,N
1683220875.2,286046999.3,N
1683220895.9,286047001.0,N
1683220915.7,286046998.7,N
1683220935.6,286046999.2,N
1683220955.4,286046998.5,N
1683220975.2,286047001.1,N
1683220995.1,286046998.7,N
1683220996.0,286046998.7,N
1683221015.8,286046998.4,N
1683221035.7,286046998.9,N
1683221055.5,286046999.2,N
1683221075.3,286046999.2,N
1683221095.2,286046998.2,N
1683221115.0,286047000.9,N
1683221115.9,286047000.9,N
1683221135.7,286047000.5,N
1683221155.6,286046999.9,N
1683221175.4,286046999.9,N
1683221195.3,286047000.7,N
1683221215.1,286047000.1,N
1683221216.0,286047000.1,N
1683221235.8,286047002.4,N
1683221255.7,286047002.8,N
1683221275.5,286047002.6,N
1683221295.3,286047002.2,N
1683221315.2,286047000.2,N
1683221335.0,286047001.0,N
1683221335.9,286047001.0,N
1683221355.8,286047001.0,N
1683221375.6,286047000.6,N
1683221395.4,286047001.1,N
1683221415.3,286046998.4,N
1683221435.1,286046998.6,N
1683221455.8,286047011.9,Y
1683221475.7,286047000.5,P
1683221495.5,286047000.0,N
1683221515.4,286047000.5,N
1683221535.2,286047000.4,N
1683221555.0,286046998.7,Y
1683221555.9,286046998.7,P
1683221575.8,286046998.7,N
1683221595.6,286046999.2,N
1683221615.5,286046999.1,N
1683221635.3,286046996.8,Y
1683221655.1,286046997.1,P
1683221675.9,286046995.1,P
1683221695.7,286046996.8,N
1683221715.5,286046996.8,N
1683221735.4,286046995.0,Y
1683221755.2,286046998.2,P
1683221775.1,286046998.5,N
1683221776.0,286046998.5,N
1683221795.8,286047000.8,N
1683221815.6,286047001.0,N
1683221835.5,286046999.8,N
1683221855.3,286047000.2,N
1683221875.1,286047001.6,N
1683221895.9,286047002.0,N
1683221915.7,286047004.2,N
1683221935.6,286047005.9,N
1683221955.4,286047004.7,N
1683221975.2,286047007.2,N
1683221995.1,286047007.3,N
1683221996.0,286047007.3,N
1683222015.8,286047006.8,N
1683222035.6,286047007.0,N
1683222055.5,286047008.9,N
1683222075.3,286047008.2,N
1683222095.2,286047007.7,N
1683222115.9,286047010.4,N
1683222135.7,286047010.5,N
1683222155.6,286047009.6,N
1683222175.4,286047012.0,N
1683222195.2,286047011.8,N
1683222215.1,286047012.3,N
1683222216.0,286047012.3,N
1683222235.8,286047014.0,N
1683222255.7,286047011.8,N
1683222275.5,286047013.5,N
1683222295.3,286047011.7,N
1683222315.2,286047011.7,N
1683222335.9,286047011.7,N
1683222355.7,286047011.2,N
1683222375.6,286047011.6,N
1683222395.4,286047009.4,N
1683222415.2,286047009.5,N
1683222435.1,286047010.1,Y
1683222436.0,286047010.1,P
1683222455.8,286047002.0,P
1683222475.7,286047002.0,N
1683222495.5,286047001.8,N
1683222515.3,286047000.1,N
1683222535.2,286047000.7,N
1683222555.0,286046998.6,N
1683222555.9,286046998.6,N
1683222575.8,286047000.5,N
1683222595.6,286047001.2,N
1683222615.4,286047000.8,N
1683222635.3,286047001.1,N
1683222655.1,286046999.9,N
1683222656.0,286046999.9,N
1683222675.8,286046998.7,N
1683222695.7,286046996.5,N
1683222715.5,286046996.6,N
1683222735.3,286046999.3,N
1683222755.2,286046998.9,N
1683222775.0,286047000.6,N
1683222775.9,286047000.6,N
1683222795.8,286047000.7,N
1683222815.6,286047002.7,N
1683222835.4,286047000.2,N
1683222855.3,286047002.4,N
1683222875.1,286047000.7,N
1683222895.8,286047000.9,N
1683222915.7,286046998.1,N
1683222935.5,286046999.3,N
1683222955.4,286047001.2,N
1683222975.2,286046998.2,N
1683222995.0,286046999.5,N
1683222995.9,286046999.5,N
1683223015.8,286046999.0,N
1683223035.6,286046996.5,N
1683223055.4,286046999.2,N
1683223075.3,286046998.8,N
1683223095.1,286046999.4,N
1683223115.9,286046998.9,N
1683223135.7,286046999.3,N
1683223155.5,286046998.1,N
1683223175.4,286046998.4,N
1683223195.2,286047000.6,N
